If you wish to contribute or participate in the discussions about articles you are invited to join SKYbrary as a registered user

 Actions

Aurillac Airport

From SKYbrary Wiki

LFLW
Airport
ICAO: LFLW – IATA: AUR
Summary
Name Aurillac Airport
Region Europe
Territory France FR.gif
Location , Auvergne
Serving Aurillac
Elevation 638.861 m
2,096 ft
2,096 ft638.861 m
Type medium airport
Coordinates 44° 53' 29.00" N, 2° 25' 19.00" E
Runways
Designator Length Width Surface ROPS
15/33 1700 m5,577.428 ft
30 m98.425 ft
ASP /


METAR
Observation LFLW 191400Z AUTO 34005KT 290V020 CAVOK 19/10 Q1021 NOSIG
Station Aurillac
Date/Time 19 August 2019 14:00:00
Wind direction 340°
Wind speed 05 kts
Lowest cloud amount clouds and visibility OK
Temperature 19°C
Dew point 10°C
Humidity 55%
QNH 1021 hPa
Weather condition n/a